Powrót do katalogu

SL-12 R/B(2)

AktywnyGEO
NORAD 22272·ROCKET BODY·🇷🇺 Russia

Wystrzelony Dec 17, 1992 z Baikonur Cosmodrome

Loading…

TLE

ŚwieżeSource: Space-Track

Epoka: Sep 14, 2026, 12:25 UTC

1 22272U 92088D   26257.51788566  .00000090  00000-0  00000-0 0  9999
2 22272  13.7092 347.7900 0009264 175.1029 219.7871  1.00065163 48183

Śledź SL-12 R/B(2) w czasie rzeczywistym z AllMySat

Download on the App Store